FW0225 Weather Reports


Display with metric or nautical units.
time (UTC)temp
F
wind
direction
speed
MPH
gust
MPH
rain 1hr
in
rain 24hr
in
rain mn
in
humidity
%
barometer
mb
20260506041523 57 222 0.0 0.0 0.00 4.65 0.85 95 1011.1
20260506041025 57 222 0.0 0.0 0.00 4.65 0.85 95 1011.2
20260506040549 57 222 0.0 0.0 0.00 4.65 0.85 95 1011.2
20260506040041 57 222 0.0 0.0 0.00 4.65 0.85 95 1011.2
20260506035523 57 222 0.0 0.0 0.00 4.65 0.85 95 1011.3
20260506035024 57 222 0.0 0.0 0.00 4.65 0.85 95 1011.4
20260506034547 57 222 0.0 0.0 0.00 4.65 0.85 95 1011.5
20260506034025 57 222 0.0 0.0 0.00 4.65 0.85 95 1011.5
20260506033528 57 222 0.0 0.0 0.00 4.65 0.85 95 1011.5
20260506033020 57 222 0.0 0.0 0.00 4.65 0.85 95 1011.6
20260506032522 57 222 0.0 0.0 0.00 4.65 0.85 95 1011.7
20260506032023 57 222 0.0 0.0 0.00 4.65 0.85 95 1011.6
20260506031525 57 222 0.0 0.0 0.04 4.65 0.85 95 1011.6
20260506031026 57 222 0.0 0.0 0.04 4.65 0.85 95 1011.6
20260506030515 57 222 0.0 0.0 0.04 4.65 0.85 95 1011.6
20260506030026 57 222 0.0 0.0 0.04 4.65 0.85 95 1011.6
20260506025528 57 222 0.0 0.0 0.04 4.65 0.85 95 1011.6
20260506025028 57 222 0.0 0.0 0.04 4.65 0.85 95 1011.7
20260506024530 57 222 0.0 0.0 0.04 4.65 0.85 95 1011.8
20260506024031 57 222 0.0 0.0 0.04 4.65 0.85 95 1011.9
20260506023513 57 222 0.0 0.0 0.04 4.65 0.85 95 1011.9
20260506023027 57 222 0.0 0.0 0.04 4.65 0.85 95 1012.0
20260506022529 57 222 0.0 0.0 0.04 4.65 0.85 95 1012.0
20260506022030 57 222 0.0 0.0 0.08 4.65 0.85 95 1011.9
20260506021514 57 222 0.0 0.0 0.04 4.61 0.84 95 1011.9
20260506021034 57 222 0.0 0.0 0.08 4.61 0.84 95 1012.0
20260506020517 57 222 0.0 0.0 0.08 4.61 0.84 95 1012.1
20260506020028 57 222 0.0 0.0 0.08 4.61 0.84 95 1012.1
20260506015514 57 222 0.0 0.0 0.12 4.61 0.84 95 1012.2
20260506015014 57 222 0.0 1.0 0.20 4.61 0.84 95 1012.2
20260506014517 57 222 0.0 1.0 0.28 4.61 0.84 95 1012.1
20260506014016 57 222 0.0 1.0 0.35 4.61 0.84 95 1012.2
20260506013518 57 222 0.0 0.0 0.55 4.61 0.84 95 1012.2
20260506013030 57 222 0.0 0.0 0.87 4.61 0.84 95 1012.2
20260506012531 57 222 0.0 0.0 1.10 4.61 0.84 95 1012.1
20260506012030 57 222 0.0 1.0 1.38 4.57 0.83 95 1012.0
20260506011516 57 222 0.0 1.0 1.73 4.57 0.83 95 1012.0
20260506011014 57 222 0.0 1.0 1.93 4.53 0.82 95 1012.0
20260506010517 57 222 0.0 2.0 2.13 4.53 0.82 95 1012.0
20260506010029 57 222 0.0 2.0 2.28 4.53 0.82 95 1012.0
20260506005531 57 222 0.0 2.0 2.32 4.49 0.81 95 1012.0
20260506005053 57 222 0.0 2.0 2.28 4.41 0.79 95 1012.0
20260506004537 57 222 0.0 2.0 2.28 4.33 0.77 95 1011.9
20260506004037 57 222 1.0 2.0 2.28 4.25 0.75 94 1011.9
20260506003519 57 222 0.0 3.0 2.13 4.02 0.69 95 1011.9
20260506003028 57 222 0.0 3.0 2.01 3.74 0.62 95 1012.0
20260506002516 57 222 1.0 2.0 1.81 3.43 0.54 95 1012.0
20260506002016 57 222 0.0 2.0 1.65 3.15 0.47 95 1011.9
20260506001519 57 222 0.0 1.0 1.42 2.80 0.38 95 1012.0
20260506001017 57 222 0.0 2.0 1.30 2.60 0.33 95 1012.0
20260506000542 57 222 1.0 2.0 1.10 2.40 0.28 95 1012.0
20260506000053 57 222 0.0 1.0 0.94 2.24 0.24 95 1012.1
20260505235515 57 222 0.0 1.0 0.87 2.17 0.22 95 1012.1
20260505235014 57 222 0.0 1.0 0.83 2.13 0.21 95 1012.1
20260505234517 57 222 0.0 1.0 0.75 2.05 0.19 95 1012.3
20260505234017 57 222 0.0 4.0 0.67 1.97 0.17 95 1012.3
20260505233542 57 222 1.0 5.0 0.59 1.89 0.15 95 1012.5
20260505233013 57 223 3.0 5.0 0.43 1.73 0.11 95 1012.6
20260505232537 57 224 1.0 2.0 0.31 1.61 0.08 95 1012.4
20260505232015 57 224 1.0 4.0 0.20 1.50 0.05 95 1012.4
20260505231537 57 224 2.0 5.0 0.08 1.38 0.02 95 1012.5
20260505231016 57 224 3.0 5.0 0.00 1.30 0.00 95 1012.5
20260505230518 57 225 0.0 2.0 0.00 1.30 0.00 95 1012.3
20260505230030 57 225 0.0 2.0 0.00 1.30 0.00 95 1012.4
20260505225517 57 225 0.0 2.0 0.00 1.30 0.00 95 1012.4
20260505225017 57 225 0.0 2.0 0.00 1.30 0.00 95 1012.5
20260505224520 57 225 1.0 2.0 0.00 1.30 0.00 95 1012.5
20260505224021 57 225 1.0 2.0 0.00 1.30 0.00 95 1012.5
20260505223544 57 225 0.0 2.0 0.00 1.30 0.00 95 1012.5
20260505223015 57 225 1.0 2.0 0.00 1.30 0.00 95 1012.6
20260505222516 57 225 0.0 0.0 0.00 1.30 0.00 95 1012.6
20260505222014 57 225 0.0 2.0 0.00 1.30 0.00 95 1012.7
20260505221518 57 225 0.0 2.0 0.00 1.30 0.00 95 1012.7
20260505221017 57 225 0.0 1.0 0.00 1.30 0.00 95 1012.7
20260505220521 57 225 0.0 1.0 0.00 1.30 0.00 94 1012.8
20260505220032 57 225 0.0 1.0 0.00 1.30 0.33 95 1012.7
20260505215514 57 225 0.0 1.0 0.00 1.30 0.33 95 1012.8
20260505215014 57 225 0.0 1.0 0.00 1.30 0.33 94 1012.8
20260505214517 57 225 0.0 2.0 0.00 1.30 0.33 94 1012.8
20260505214016 57 225 1.0 2.0 0.00 1.30 0.33 94 1012.9
20260505213518 57 225 1.0 2.0 0.00 1.30 0.33 94 1013.0
20260505213029 57 225 0.0 1.0 0.00 1.30 0.33 94 1013.0
20260505212532 57 225 0.0 1.0 0.00 1.30 0.33 94 1013.0
20260505212030 57 225 0.0 1.0 0.00 1.30 0.33 94 1013.0
20260505211515 57 225 0.0 1.0 0.00 1.30 0.33 94 1013.1
20260505211037 57 225 0.0 2.0 0.00 1.30 0.33 94 1013.1
20260505210520 57 225 0.0 2.0 0.00 1.30 0.33 94 1013.1
20260505210032 57 225 1.0 2.0 0.00 1.30 0.33 94 1013.1
20260505205515 57 225 0.0 3.0 0.00 1.30 0.33 94 1013.1
20260505205016 57 225 1.0 3.0 0.00 1.30 0.33 94 1013.1
20260505204540 57 225 0.0 1.0 0.00 1.30 0.33 94 1013.0
20260505204016 57 225 0.0 0.0 0.00 1.30 0.33 94 1013.0
20260505203519 57 225 0.0 0.0 0.00 1.30 0.33 94 1013.0
20260505203014 57 225 0.0 2.0 0.04 1.30 0.33 94 1013.0
20260505202539 57 225 1.0 2.0 0.04 1.30 0.33 94 1013.0
20260505202017 57 225 0.0 1.0 0.04 1.30 0.33 94 1013.0
20260505201521 57 225 0.0 1.0 0.04 1.30 0.33 94 1013.1
20260505201043 57 225 0.0 2.0 0.04 1.30 0.33 94 1013.1
20260505200526 57 225 0.0 2.0 0.04 1.30 0.33 94 1013.1
20260505200017 57 225 1.0 1.0 0.04 1.30 0.33 94 1013.1
20260505195542 57 225 0.0 3.0 0.04 1.30 0.33 94 1013.1
20260505195042 57 225 1.0 3.0 0.04 1.30 0.33 94 1013.1
20260505194523 57 225 1.0 2.0 0.04 1.30 0.33 94 1013.0
20260505194024 57 225 1.0 2.0 0.04 1.30 0.33 94 1013.0
20260505193528 57 225 1.0 2.0 0.04 1.30 0.33 94 1013.0
20260505193021 57 225 0.0 2.0 0.04 1.26 0.32 94 1013.0
20260505192524 57 225 1.0 2.0 0.08 1.26 0.32 94 1013.0
20260505192025 57 225 1.0 2.0 0.08 1.26 0.32 94 1012.9
20260505191529 57 225 1.0 2.0 0.08 1.26 0.32 94 1013.0
20260505191029 57 225 0.0 1.0 0.08 1.26 0.32 94 1012.9
20260505190517 57 225 0.0 1.0 0.08 1.26 0.32 94 1012.9
20260505190044 57 225 0.0 1.0 0.08 1.26 0.32 93 1012.8
20260505185512 57 225 0.0 1.0 0.12 1.26 0.32 93 1012.8
20260505185011 57 225 0.0 1.0 0.12 1.26 0.32 93 1012.8
20260505184517 57 225 0.0 1.0 0.12 1.26 0.32 93 1012.8
20260505184036 56 225 0.0 1.0 0.12 1.26 0.32 93 1012.7
20260505183520 57 225 0.0 1.0 0.12 1.26 0.32 93 1012.7
20260505183012 57 225 0.0 1.0 0.08 1.22 0.31 93 1012.7
20260505182515 57 225 0.0 1.0 0.04 1.18 0.30 93 1012.8
20260505182017 56 225 0.0 1.0 0.04 1.18 0.30 93 1012.7
20260505181520 56 225 0.0 0.0 0.04 1.18 0.30 93 1012.7
20260505181018 56 225 0.0 0.0 0.04 1.18 0.30 93 1012.7
20260505180522 57 225 0.0 0.0 0.04 1.18 0.30 93 1012.7
20260505180015 56 225 0.0 1.0 0.04 1.18 0.30 93 1012.7
20260505175518 57 225 0.0 1.0 0.00 1.14 0.29 93 1012.8
20260505175016 56 225 0.0 1.0 0.00 1.14 0.29 93 1012.8
20260505174523 56 225 0.0 0.0 0.00 1.14 0.29 93 1012.8
20260505174023 57 225 0.0 0.0 0.04 1.14 0.29 93 1012.8
20260505173525 57 225 0.0 0.0 0.08 1.14 0.29 92 1012.9
20260505173016 57 225 0.0 0.0 0.08 1.14 0.29 92 1012.9
20260505172520 57 225 0.0 0.0 0.12 1.14 0.29 92 1012.9
20260505172021 57 225 0.0 1.0 0.16 1.14 0.29 92 1012.9
20260505171524 57 225 0.0 1.0 0.20 1.14 0.29 92 1012.9
20260505171024 57 225 0.0 1.0 0.20 1.14 0.29 91 1013.0
20260505170525 57 225 0.0 1.0 0.24 1.14 0.29 91 1013.0
20260505170015 57 225 0.0 0.0 0.28 1.14 0.29 91 1013.1
20260505165519 57 225 0.0 1.0 0.28 1.14 0.29 91 1013.1
20260505165019 57 225 0.0 2.0 0.31 1.14 0.29 91 1013.1
20260505164523 57 225 0.0 2.0 0.35 1.14 0.29 91 1013.1
20260505164024 57 225 0.0 1.0 0.35 1.10 0.28 91 1013.2
20260505163548 57 225 0.0 1.0 0.31 1.06 0.27 90 1013.2
20260505163020 57 225 0.0 2.0 0.31 1.06 0.27 90 1013.2
20260505162523 57 225 0.0 2.0 0.28 1.02 0.26 90 1013.2
20260505162041 57 225 1.0 3.0 0.24 0.98 0.25 90 1013.3
20260505161544 57 225 1.0 3.0 0.20 0.94 0.24 90 1013.2
20260505161027 57 225 0.0 2.0 0.20 0.94 0.24 89 1013.3
20260505160529 57 225 0.0 2.0 0.20 0.91 0.23 89 1013.4
20260505153020 57 225 1.0 3.0 0.12 0.75 0.19 88 1013.4
20260505152522 57 225 2.0 3.0 0.12 0.75 0.19 89 1013.4
20260505152022 57 225 0.0 1.0 0.12 0.75 0.19 88 1013.5
20260505151526 58 225 0.0 1.0 0.12 0.75 0.19 89 1013.5
20260505151024 58 225 0.0 3.0 0.12 0.75 0.19 89 1013.6
20260505150547 58 225 0.0 3.0 0.08 0.71 0.18 89 1013.7
20260505140552 59 225 0.0 1.0 0.04 0.63 0.16 88 1014.0
20260505125029 59 225 1.0 1.0 0.16 0.59 0.15 86 1014.3
20260505124511 59 225 0.0 0.0 0.16 0.59 0.15 86 1014.4
20260505124052 59 225 0.0 2.0 0.20 0.59 0.15 87 1014.4
20260505123515 59 225 0.0 2.0 0.16 0.55 0.14 87 1014.4
20260505123029 59 225 1.0 2.0 0.16 0.55 0.14 86 1014.5
20260505122512 59 225 1.0 2.0 0.16 0.55 0.14 86 1014.6
20260505122052 59 225 0.0 1.0 0.16 0.55 0.14 85 1014.6
20260505121531 59 225 0.0 2.0 0.12 0.51 0.13 85 1014.6
20260505121031 59 225 0.0 3.0 0.16 0.51 0.13 84 1014.6
20260505120514 59 225 1.0 2.0 0.12 0.47 0.12 84 1014.7
20260505120028 59 225 0.0 2.0 0.12 0.47 0.12 85 1014.7
20260505115516 60 225 0.0 2.0 0.12 0.43 0.11 85 1014.6
20260505115018 59 225 0.0 4.0 0.16 0.43 0.11 85 1014.7
20260505114541 59 225 2.0 3.0 0.16 0.43 0.11 85 1014.7
20260505114020 59 225 1.0 3.0 0.12 0.39 0.10 85 1014.7
20260505113525 59 225 1.0 3.0 0.12 0.39 0.10 84 1014.7
20260505113038 59 225 1.0 4.0 0.12 0.39 0.10 85 1014.8
20260505112521 59 225 2.0 6.0 0.12 0.39 0.10 84 1014.8
20260505112020 59 228 3.0 8.0 0.12 0.39 0.10 84 1014.8
20260505111522 59 230 3.0 12.0 0.16 0.39 0.10 85 1014.8
20260505111021 59 232 5.0 12.0 0.16 0.35 0.09 84 1014.8
20260505110544 60 245 4.0 9.0 0.28 0.35 0.09 85 1014.8
20260505102039 62 250 0.0 2.0 0.28 0.28 0.07 84 1014.7
20260505101521 62 250 1.0 2.0 0.24 0.24 0.06 83 1014.7
20260505101020 63 249 0.0 4.0 0.20 0.20 0.05 81 1014.7
20260505100526 63 249 2.0 4.0 0.08 0.08 0.02 79 1014.7
20260505100018 63 255 1.0 3.0 0.00 0.00 0.00 78 1014.7
20260505095519 64 255 1.0 3.0 0.00 0.00 0.00 78 1014.7
20260505095018 64 255 1.0 7.0 0.00 0.00 0.00 77 1014.7
20260505094521 64 255 1.0 7.0 0.00 0.00 0.00 76 1014.8
20260505094021 63 270 1.0 6.0 0.00 0.00 0.00 75 1014.8
20260505093524 63 272 2.0 7.0 0.00 0.00 0.00 74 1014.8
20260505093015 63 286 3.0 7.0 0.00 0.00 0.00 74 1014.7
20260505092520 63 302 2.0 4.0 0.00 0.00 0.00 75 1014.8
20260505092019 63 304 1.0 3.0 0.00 0.00 0.00 74 1014.8
20260505091522 62 304 1.0 2.0 0.00 0.00 0.00 76 1014.9
20260505091021 62 304 1.0 2.0 0.00 0.00 0.00 74 1014.9
20260505090543 62 304 0.0 2.0 0.00 0.00 0.00 74 1014.8
20260505090013 62 304 0.0 2.0 0.00 0.00 0.00 73 1014.8
20260505085516 61 304 1.0 3.0 0.00 0.00 0.00 73 1014.7
20260505085017 61 304 2.0 3.0 0.00 0.00 0.00 73 1014.7
20260505084523 61 304 2.0 3.0 0.00 0.00 0.00 73 1014.6
20260505084023 61 304 2.0 4.0 0.00 0.00 0.00 73 1014.6
20260505083527 61 302 2.0 4.0 0.00 0.00 0.00 73 1014.6
20260505083039 61 294 2.0 5.0 0.00 0.00 0.00 73 1014.5
20260505082541 61 286 2.0 5.0 0.00 0.00 0.00 73 1014.5
20260505082018 60 247 3.0 5.0 0.00 0.00 0.00 74 1014.4
20260505081540 60 236 3.0 6.0 0.00 0.00 0.00 75 1014.5
20260505081020 59 228 4.0 6.0 0.00 0.00 0.00 76 1014.6
20260505080523 58 228 3.0 4.0 0.00 0.00 0.00 77 1014.6
20260505080015 58 228 2.0 4.0 0.00 0.00 0.00 77 1014.7
20260505075518 57 228 3.0 4.0 0.00 0.00 0.00 78 1014.6
20260505075040 57 228 2.0 4.0 0.00 0.00 0.00 78 1014.7
20260505074523 57 228 3.0 4.0 0.00 0.00 0.00 78 1014.7
20260505074024 56 228 2.0 3.0 0.00 0.00 0.00 80 1014.6
20260505073527 56 228 1.0 4.0 0.00 0.00 0.00 81 1014.7
20260505073020 55 228 3.0 4.0 0.00 0.00 0.00 81 1014.6
20260505072544 55 228 2.0 4.0 0.00 0.00 0.00 82 1014.6
20260505072022 55 228 2.0 3.0 0.00 0.00 0.00 82 1014.7
20260505071524 55 228 2.0 3.0 0.00 0.00 0.00 82 1014.7
20260505071024 55 228 2.0 3.0 0.00 0.00 0.00 82 1014.7
20260505070531 54 228 2.0 3.0 0.00 0.00 0.00 83 1014.7
20260505070023 54 228 1.0 4.0 0.00 0.00 0.00 83 1014.7
20260505065546 54 228 2.0 4.0 0.00 0.00 0.00 84 1014.7
20260505065046 54 228 2.0 4.0 0.00 0.00 0.00 84 1014.7
20260505064528 53 227 3.0 4.0 0.00 0.00 0.00 85 1014.7
20260505064026 53 227 3.0 4.0 0.00 0.00 0.00 85 1014.7
20260505063530 53 227 2.0 4.0 0.00 0.00 0.00 85 1014.7
20260505063021 53 227 3.0 4.0 0.00 0.00 0.00 85 1014.7
20260505062525 53 227 2.0 4.0 0.00 0.00 0.00 85 1014.7
20260505062025 52 227 2.0 3.0 0.00 0.00 0.00 86 1014.6
20260505061528 52 227 2.0 3.0 0.00 0.00 0.00 86 1014.6
20260505061028 52 227 2.0 3.0 0.00 0.00 0.00 87 1014.6
20260505060512 52 227 1.0 5.0 0.00 0.00 0.00 87 1014.6
20260505060025 51 227 2.0 5.0 0.00 0.00 0.00 87 1014.6
20260505055513 51 227 3.0 4.0 0.00 0.00 0.00 87 1014.7
20260505055034 51 227 3.0 4.0 0.00 0.00 0.00 87 1014.7
20260505054515 51 227 1.0 4.0 0.00 0.00 0.00 87 1014.7
20260505054013 51 227 1.0 3.0 0.00 0.00 0.00 88 1014.6
20260505053517 51 226 2.0 3.0 0.00 0.00 0.00 88 1014.6
20260505053030 51 226 2.0 3.0 0.00 0.00 0.00 88 1014.6
20260505052512 51 226 1.0 3.0 0.00 0.00 0.00 88 1014.6
20260505052034 50 226 1.0 4.0 0.00 0.00 0.00 88 1014.5
20260505051516 50 226 2.0 4.0 0.00 0.00 0.00 88 1014.6
20260505051013 50 226 1.0 4.0 0.00 0.00 0.00 88 1014.5
20260505050516 50 226 2.0 5.0 0.00 0.00 0.00 88 1014.6